Year,Month,Day,Hour,Minute,Value (Times are PST for temperature in C)
2009,07,28,00,13,12.30
2009,07,28,00,14,12.30
2009,07,28,00,15,12.30
2009,07,28,00,16,12.30
2009,07,28,00,17,12.30
2009,07,28,00,18,12.30
2009,07,28,00,19,12.30
2009,07,28,00,20,12.30
2009,07,28,00,21,12.30
2009,07,28,00,22,12.30
2009,07,28,00,23,12.30
2009,07,28,00,24,12.30
2009,07,28,00,25,12.30
2009,07,28,00,26,12.30
2009,07,28,00,27,12.30
2009,07,28,00,28,11.90
2009,07,28,00,29,11.90
2009,07,28,00,30,11.90
2009,07,28,00,31,11.90
2009,07,28,00,32,11.90
2009,07,28,00,33,11.90
2009,07,28,00,34,11.90
2009,07,28,00,35,11.90
2009,07,28,00,36,11.90
2009,07,28,00,37,11.90
2009,07,28,00,38,11.90
2009,07,28,00,39,11.90
2009,07,28,00,40,11.90
2009,07,28,00,41,11.90
2009,07,28,00,42,11.90
2009,07,28,00,43,12.10
2009,07,28,00,44,12.10
2009,07,28,00,45,12.10
2009,07,28,00,46,12.10
2009,07,28,00,47,12.10
2009,07,28,00,48,12.10
2009,07,28,00,49,12.10
2009,07,28,00,50,12.10
2009,07,28,00,51,12.10
2009,07,28,00,52,12.10
2009,07,28,00,53,12.10
2009,07,28,00,54,12.10
2009,07,28,00,55,12.10
2009,07,28,00,56,12.10
2009,07,28,00,57,12.10
2009,07,28,00,58,12.20
2009,07,28,00,59,12.20
2009,07,28,01,00,12.20
2009,07,28,01,01,12.20
2009,07,28,01,02,12.20
2009,07,28,01,03,12.20
2009,07,28,01,04,12.20
2009,07,28,01,05,12.20
2009,07,28,01,06,12.20
2009,07,28,01,07,12.20
2009,07,28,01,08,12.20
2009,07,28,01,09,12.20
2009,07,28,01,10,12.20
2009,07,28,01,11,12.20
2009,07,28,01,12,12.20
2009,07,28,01,13,12.10
2009,07,28,01,14,12.10
2009,07,28,01,15,12.10
2009,07,28,01,16,12.10
2009,07,28,01,17,12.10
2009,07,28,01,18,12.10
2009,07,28,01,19,12.10
2009,07,28,01,20,12.10
2009,07,28,01,21,12.10
2009,07,28,01,22,12.10
2009,07,28,01,23,12.10
2009,07,28,01,24,12.10
2009,07,28,01,25,12.10
2009,07,28,01,26,12.10
2009,07,28,01,27,12.10
2009,07,28,01,28,12.10
2009,07,28,01,29,12.10
2009,07,28,01,30,12.10
2009,07,28,01,31,12.10
2009,07,28,01,32,12.10
2009,07,28,01,33,12.10
2009,07,28,01,34,12.10
2009,07,28,01,35,12.10
2009,07,28,01,36,12.10
2009,07,28,01,37,12.10
2009,07,28,01,38,12.10
2009,07,28,01,39,12.10
2009,07,28,01,40,12.10
2009,07,28,01,41,12.10
2009,07,28,01,42,12.10
2009,07,28,01,43,11.90
2009,07,28,01,44,11.90
2009,07,28,01,45,11.90
2009,07,28,01,46,11.90
2009,07,28,01,47,11.90
2009,07,28,01,48,11.90
2009,07,28,01,49,11.90
2009,07,28,01,50,11.90
2009,07,28,01,51,11.90
2009,07,28,01,52,11.90
2009,07,28,01,53,11.90
2009,07,28,01,54,11.90
2009,07,28,01,55,11.90
2009,07,28,01,56,11.90
2009,07,28,01,57,11.90
2009,07,28,01,58,11.80
2009,07,28,01,59,11.80
2009,07,28,02,00,11.80
2009,07,28,02,01,11.80
2009,07,28,02,02,11.80
2009,07,28,02,03,11.80
2009,07,28,02,04,11.80
2009,07,28,02,05,11.80
2009,07,28,02,06,11.80
2009,07,28,02,07,11.80
2009,07,28,02,08,11.80
2009,07,28,02,09,11.80
2009,07,28,02,10,11.80
2009,07,28,02,11,11.80
2009,07,28,02,12,11.80
2009,07,28,02,13,11.80
2009,07,28,02,14,11.80
2009,07,28,02,15,11.80
2009,07,28,02,16,11.80
2009,07,28,02,17,11.80
2009,07,28,02,18,11.80
2009,07,28,02,19,11.80
2009,07,28,02,20,11.80
2009,07,28,02,21,11.80
2009,07,28,02,22,11.80
2009,07,28,02,23,11.80
2009,07,28,02,24,11.80
2009,07,28,02,25,11.80
2009,07,28,02,26,11.80
2009,07,28,02,27,11.80
2009,07,28,02,28,11.90
2009,07,28,02,29,11.90
2009,07,28,02,30,11.90
2009,07,28,02,31,11.90
2009,07,28,02,32,11.90
2009,07,28,02,33,11.90
2009,07,28,02,34,11.90
2009,07,28,02,35,11.90
2009,07,28,02,36,11.90
2009,07,28,02,37,11.90
2009,07,28,02,38,11.90
2009,07,28,02,39,11.90
2009,07,28,02,40,11.90
2009,07,28,02,41,11.90
2009,07,28,02,42,11.90
2009,07,28,02,43,12.10
2009,07,28,02,44,12.10
2009,07,28,02,45,12.10
2009,07,28,02,46,12.10
2009,07,28,02,47,12.10
2009,07,28,02,48,12.10
2009,07,28,02,49,12.10
2009,07,28,02,50,12.10
2009,07,28,02,51,12.10
2009,07,28,02,52,12.10
2009,07,28,02,53,12.10
2009,07,28,02,54,12.10
2009,07,28,02,55,12.10
2009,07,28,02,56,12.10
2009,07,28,02,57,12.10
2009,07,28,02,58,12.40
2009,07,28,02,59,12.40
2009,07,28,03,00,12.40
2009,07,28,03,01,12.40
2009,07,28,03,02,12.40
2009,07,28,03,03,12.40
2009,07,28,03,04,12.40
2009,07,28,03,05,12.40
2009,07,28,03,06,12.40
2009,07,28,03,07,12.40
2009,07,28,03,08,12.40
2009,07,28,03,09,12.40
2009,07,28,03,10,12.40
2009,07,28,03,11,12.40
2009,07,28,03,12,12.40
2009,07,28,03,13,12.70
2009,07,28,03,14,12.70
2009,07,28,03,15,12.70
2009,07,28,03,16,12.70
2009,07,28,03,17,12.70
2009,07,28,03,18,12.70
2009,07,28,03,19,12.70
2009,07,28,03,20,12.70
2009,07,28,03,21,12.70
2009,07,28,03,22,12.70
2009,07,28,03,23,12.70
2009,07,28,03,24,12.70
2009,07,28,03,25,12.70
2009,07,28,03,26,12.70
2009,07,28,03,27,12.70
2009,07,28,03,28,12.30
2009,07,28,03,29,12.30
2009,07,28,03,30,12.30
2009,07,28,03,31,12.30
2009,07,28,03,32,12.30
2009,07,28,03,33,12.30
2009,07,28,03,34,12.30
2009,07,28,03,35,12.30
2009,07,28,03,36,12.30
2009,07,28,03,37,12.30
2009,07,28,03,38,12.30
2009,07,28,03,39,12.30
2009,07,28,03,40,12.30
2009,07,28,03,41,12.30
2009,07,28,03,42,12.30
2009,07,28,03,43,12.30
2009,07,28,03,44,12.30
2009,07,28,03,45,12.30
2009,07,28,03,46,12.30
2009,07,28,03,47,12.30
2009,07,28,03,48,12.30
2009,07,28,03,49,12.30
2009,07,28,03,50,12.30
2009,07,28,03,51,12.30
2009,07,28,03,52,12.30
2009,07,28,03,53,12.30
2009,07,28,03,54,12.30
2009,07,28,03,55,12.30
2009,07,28,03,56,12.30
2009,07,28,03,57,12.30
2009,07,28,03,58,12.60
2009,07,28,03,59,12.60
2009,07,28,04,00,12.60
2009,07,28,04,01,12.60
2009,07,28,04,02,12.60
2009,07,28,04,03,12.60
2009,07,28,04,04,12.60
2009,07,28,04,05,12.60
2009,07,28,04,06,12.60
2009,07,28,04,07,12.60
2009,07,28,04,08,12.60
2009,07,28,04,09,12.60
2009,07,28,04,10,12.60
2009,07,28,04,11,12.60
2009,07,28,04,12,12.60
2009,07,28,04,13,12.30
2009,07,28,04,14,12.30
2009,07,28,04,15,12.30
2009,07,28,04,16,12.30
2009,07,28,04,17,12.30
2009,07,28,04,18,12.30
2009,07,28,04,19,12.30
2009,07,28,04,20,12.30
2009,07,28,04,21,12.30
2009,07,28,04,22,12.30
2009,07,28,04,23,12.30
2009,07,28,04,24,12.30
2009,07,28,04,25,12.30
2009,07,28,04,26,12.30
2009,07,28,04,27,12.30
2009,07,28,04,28,12.60
2009,07,28,04,29,12.60
2009,07,28,04,30,12.60
2009,07,28,04,31,12.60
2009,07,28,04,32,12.60
2009,07,28,04,33,12.60
2009,07,28,04,34,12.60
2009,07,28,04,35,12.60
2009,07,28,04,36,12.60
2009,07,28,04,37,12.60
2009,07,28,04,38,12.60
2009,07,28,04,39,12.60
2009,07,28,04,40,12.60
2009,07,28,04,41,12.60
2009,07,28,04,42,12.60
2009,07,28,04,43,13.20
2009,07,28,04,44,13.20
2009,07,28,04,45,13.20
2009,07,28,04,46,13.20
2009,07,28,04,47,13.20
2009,07,28,04,48,13.20
2009,07,28,04,49,13.20
2009,07,28,04,50,13.20
2009,07,28,04,51,13.20
2009,07,28,04,52,13.20
2009,07,28,04,53,13.20
2009,07,28,04,54,13.20
2009,07,28,04,55,13.20
2009,07,28,04,56,13.20
2009,07,28,04,57,13.20
2009,07,28,04,58,13.60
2009,07,28,04,59,13.60
2009,07,28,05,00,13.60
2009,07,28,05,01,13.60
2009,07,28,05,02,13.60
2009,07,28,05,03,13.60
2009,07,28,05,04,13.60
2009,07,28,05,05,13.60
2009,07,28,05,06,13.60
2009,07,28,05,07,13.60
2009,07,28,05,08,13.60
2009,07,28,05,09,13.60
2009,07,28,05,10,13.60
2009,07,28,05,11,13.60
2009,07,28,05,12,13.60
2009,07,28,05,13,13.50
2009,07,28,05,14,13.50
2009,07,28,05,15,13.50
2009,07,28,05,16,13.50
2009,07,28,05,17,13.50
2009,07,28,05,18,13.50
2009,07,28,05,19,13.50
2009,07,28,05,20,13.50
2009,07,28,05,21,13.50
2009,07,28,05,22,13.50
2009,07,28,05,23,13.50
2009,07,28,05,24,13.50
2009,07,28,05,25,13.50
2009,07,28,05,26,13.50
2009,07,28,05,27,13.50
2009,07,28,05,28,12.90
2009,07,28,05,29,12.90
2009,07,28,05,30,12.90
2009,07,28,05,31,12.90
2009,07,28,05,32,12.90
2009,07,28,05,33,12.90
2009,07,28,05,34,12.90
2009,07,28,05,35,12.90
2009,07,28,05,36,12.90
2009,07,28,05,37,12.90
2009,07,28,05,38,12.90
2009,07,28,05,39,12.90
2009,07,28,05,40,12.90
2009,07,28,05,41,12.90
2009,07,28,05,42,12.90
2009,07,28,05,43,12.80
2009,07,28,05,44,12.80
2009,07,28,05,45,12.80
2009,07,28,05,46,12.80
2009,07,28,05,47,12.80
2009,07,28,05,48,12.80
2009,07,28,05,49,12.80
2009,07,28,05,50,12.80
2009,07,28,05,51,12.80
2009,07,28,05,52,12.80
2009,07,28,05,53,12.80
2009,07,28,05,54,12.80
2009,07,28,05,55,12.80
2009,07,28,05,56,12.80
2009,07,28,05,57,12.80
2009,07,28,05,58,12.70
2009,07,28,05,59,12.70
2009,07,28,06,00,12.70
2009,07,28,06,01,12.70
2009,07,28,06,02,12.70
2009,07,28,06,03,12.70
2009,07,28,06,04,12.70
2009,07,28,06,05,12.70
2009,07,28,06,06,12.70
2009,07,28,06,07,12.70
2009,07,28,06,08,12.70
2009,07,28,06,09,12.70
2009,07,28,06,10,12.70
2009,07,28,06,11,12.70
2009,07,28,06,12,12.70
2009,07,28,06,13,13.10
2009,07,28,06,14,13.10
2009,07,28,06,15,13.10
2009,07,28,06,16,13.10
2009,07,28,06,17,13.10
2009,07,28,06,18,13.10
2009,07,28,06,19,13.10
2009,07,28,06,20,13.10
2009,07,28,06,21,13.10
2009,07,28,06,22,13.10
2009,07,28,06,23,13.10
2009,07,28,06,24,13.10
2009,07,28,06,25,13.10
2009,07,28,06,26,13.10
2009,07,28,06,27,13.10
2009,07,28,06,28,13.20
2009,07,28,06,29,13.20
2009,07,28,06,30,13.20
2009,07,28,06,31,13.20
2009,07,28,06,32,13.20
2009,07,28,06,33,13.20
2009,07,28,06,34,13.20
2009,07,28,06,35,13.20
2009,07,28,06,36,13.20
2009,07,28,06,37,13.20
2009,07,28,06,38,13.20
2009,07,28,06,39,13.20
2009,07,28,06,40,13.20
2009,07,28,06,41,13.20
2009,07,28,06,42,13.20
2009,07,28,06,43,13.60
2009,07,28,06,44,13.60
2009,07,28,06,45,13.60
2009,07,28,06,46,13.60
2009,07,28,06,47,13.60
2009,07,28,06,48,13.60
2009,07,28,06,49,13.60
2009,07,28,06,50,13.60
2009,07,28,06,51,13.60
2009,07,28,06,52,13.60
2009,07,28,06,53,13.60
2009,07,28,06,54,13.60
2009,07,28,06,55,13.60
2009,07,28,06,56,13.60
2009,07,28,06,57,13.60
2009,07,28,06,58,14.30
2009,07,28,06,59,14.30
2009,07,28,07,00,14.30
2009,07,28,07,01,14.30
2009,07,28,07,02,14.30
2009,07,28,07,03,14.30
2009,07,28,07,04,14.30
2009,07,28,07,05,14.30
2009,07,28,07,06,14.30
2009,07,28,07,07,14.30
2009,07,28,07,08,14.30
2009,07,28,07,09,14.30
2009,07,28,07,10,14.30
2009,07,28,07,11,14.30
2009,07,28,07,12,14.30
2009,07,28,07,13,14.90
2009,07,28,07,14,14.90
2009,07,28,07,15,14.90
2009,07,28,07,16,14.90
2009,07,28,07,17,14.90
2009,07,28,07,18,14.90
2009,07,28,07,19,14.90
2009,07,28,07,20,14.90
2009,07,28,07,21,14.90
2009,07,28,07,22,14.90
2009,07,28,07,23,14.90
2009,07,28,07,24,14.90
2009,07,28,07,25,14.90
2009,07,28,07,26,14.90
2009,07,28,07,27,14.90
2009,07,28,07,28,14.90
2009,07,28,07,29,14.90
2009,07,28,07,30,14.90
2009,07,28,07,31,14.90
2009,07,28,07,32,14.90
2009,07,28,07,33,14.90
2009,07,28,07,34,14.90
2009,07,28,07,35,14.90
2009,07,28,07,36,14.90
2009,07,28,07,37,14.90
2009,07,28,07,38,14.90
2009,07,28,07,39,14.90
2009,07,28,07,40,14.90
2009,07,28,07,41,14.90
2009,07,28,07,42,14.90
2009,07,28,07,43,14.70
2009,07,28,07,44,14.70
2009,07,28,07,45,14.70
2009,07,28,07,46,14.70
2009,07,28,07,47,14.70
2009,07,28,07,48,14.70
2009,07,28,07,49,14.70
2009,07,28,07,50,14.70
2009,07,28,07,51,14.70
2009,07,28,07,52,14.70
2009,07,28,07,53,14.70
2009,07,28,07,54,14.70
2009,07,28,07,55,14.70
2009,07,28,07,56,14.70
2009,07,28,07,57,14.70
2009,07,28,07,58,14.30
2009,07,28,07,59,14.30
2009,07,28,08,00,14.30
2009,07,28,08,01,14.30
2009,07,28,08,02,14.30
2009,07,28,08,03,14.30
2009,07,28,08,04,14.30
2009,07,28,08,05,14.30
2009,07,28,08,06,14.30
2009,07,28,08,07,14.30
2009,07,28,08,08,14.30
2009,07,28,08,09,14.30
2009,07,28,08,10,14.30
2009,07,28,08,11,14.30
2009,07,28,08,12,14.30
2009,07,28,08,13,15.30
2009,07,28,08,14,15.30
2009,07,28,08,15,15.30
2009,07,28,08,16,15.30
2009,07,28,08,17,15.30
2009,07,28,08,18,15.30
2009,07,28,08,19,15.30
2009,07,28,08,20,15.30
2009,07,28,08,21,15.30
2009,07,28,08,22,15.30
2009,07,28,08,23,15.30
2009,07,28,08,24,15.30
2009,07,28,08,25,15.30
2009,07,28,08,26,15.30
2009,07,28,08,27,15.30
2009,07,28,08,28,16.00
2009,07,28,08,29,16.00
2009,07,28,08,30,16.00
2009,07,28,08,31,16.00
2009,07,28,08,32,16.00
2009,07,28,08,33,16.00
2009,07,28,08,34,16.00
2009,07,28,08,35,16.00
2009,07,28,08,36,16.00
2009,07,28,08,37,16.00
2009,07,28,08,38,16.00
2009,07,28,08,39,16.00
2009,07,28,08,40,16.00
2009,07,28,08,41,16.00
2009,07,28,08,42,16.00
2009,07,28,08,43,16.90
2009,07,28,08,44,16.90
2009,07,28,08,45,16.90
2009,07,28,08,46,16.90
2009,07,28,08,47,16.90
2009,07,28,08,48,16.90
2009,07,28,08,49,16.90
2009,07,28,08,50,16.90
2009,07,28,08,51,16.90
2009,07,28,08,52,16.90
2009,07,28,08,53,16.90
2009,07,28,08,54,16.90
2009,07,28,08,55,16.90
2009,07,28,08,56,16.90
2009,07,28,08,57,16.90
2009,07,28,08,58,17.50
2009,07,28,08,59,17.50
2009,07,28,09,00,17.50
2009,07,28,09,01,17.50
2009,07,28,09,02,17.50
2009,07,28,09,03,17.50
2009,07,28,09,04,17.50
2009,07,28,09,05,17.50
2009,07,28,09,06,17.50
2009,07,28,09,07,17.50
2009,07,28,09,08,17.50
2009,07,28,09,09,17.50
2009,07,28,09,10,17.50
2009,07,28,09,11,17.50
2009,07,28,09,12,17.50
2009,07,28,09,13,18.10
2009,07,28,09,14,18.10
2009,07,28,09,15,18.10
2009,07,28,09,16,18.10
2009,07,28,09,17,18.10
2009,07,28,09,18,18.10
2009,07,28,09,19,18.10
2009,07,28,09,20,18.10
2009,07,28,09,21,18.10
2009,07,28,09,22,18.10
2009,07,28,09,23,18.10
2009,07,28,09,24,18.10
2009,07,28,09,25,18.10
2009,07,28,09,26,18.10
2009,07,28,09,27,18.10
2009,07,28,09,28,17.90
2009,07,28,09,29,17.90
2009,07,28,09,30,17.90
2009,07,28,09,31,17.90
2009,07,28,09,32,17.90
2009,07,28,09,33,17.90
2009,07,28,09,34,17.90
2009,07,28,09,35,17.90
2009,07,28,09,36,17.90
2009,07,28,09,37,17.90
2009,07,28,09,38,17.90
2009,07,28,09,39,17.90
2009,07,28,09,40,17.90
2009,07,28,09,41,17.90
2009,07,28,09,42,17.90
2009,07,28,09,43,18.20
2009,07,28,09,44,18.20
2009,07,28,09,45,18.20
2009,07,28,09,46,18.20
2009,07,28,09,47,18.20
2009,07,28,09,48,18.20
2009,07,28,09,49,18.20
2009,07,28,09,50,18.20
2009,07,28,09,51,18.20
2009,07,28,09,52,18.20
2009,07,28,09,53,18.20
2009,07,28,09,54,18.20
2009,07,28,09,55,18.20
2009,07,28,09,56,18.20
2009,07,28,09,57,18.20
2009,07,28,09,58,18.80
2009,07,28,09,59,18.80
2009,07,28,10,00,18.80
2009,07,28,10,01,18.80
2009,07,28,10,02,18.80
2009,07,28,10,03,18.80
2009,07,28,10,04,18.80
2009,07,28,10,05,18.80
2009,07,28,10,06,18.80
2009,07,28,10,07,18.80
2009,07,28,10,08,18.80
2009,07,28,10,09,18.80
2009,07,28,10,10,18.80
2009,07,28,10,11,18.80
2009,07,28,10,12,18.80
2009,07,28,10,13,19.10
2009,07,28,10,14,19.10
2009,07,28,10,15,19.10
2009,07,28,10,16,19.10
2009,07,28,10,17,19.10
2009,07,28,10,18,19.10
2009,07,28,10,19,19.10
2009,07,28,10,20,19.10
2009,07,28,10,21,19.10
2009,07,28,10,22,19.10
2009,07,28,10,23,19.10
2009,07,28,10,24,19.10
2009,07,28,10,25,19.10
2009,07,28,10,26,19.10
2009,07,28,10,27,19.10
2009,07,28,10,28,18.80
2009,07,28,10,29,18.80
2009,07,28,10,30,18.80
2009,07,28,10,31,18.80
2009,07,28,10,32,18.80
2009,07,28,10,33,18.80
2009,07,28,10,34,18.80
2009,07,28,10,35,18.80
2009,07,28,10,36,18.80
2009,07,28,10,37,18.80
2009,07,28,10,38,18.80
2009,07,28,10,39,18.80
2009,07,28,10,40,18.80
2009,07,28,10,41,18.80
2009,07,28,10,42,18.80
2009,07,28,10,43,19.10
2009,07,28,10,44,19.10
2009,07,28,10,45,19.10
2009,07,28,10,46,19.10
2009,07,28,10,47,19.10
2009,07,28,10,48,19.10
2009,07,28,10,49,19.10
2009,07,28,10,50,19.10
2009,07,28,10,51,19.10
2009,07,28,10,52,19.10
2009,07,28,10,53,19.10
2009,07,28,10,54,19.10
2009,07,28,10,55,19.10
2009,07,28,10,56,19.10
2009,07,28,10,57,19.10
2009,07,28,10,58,19.60
2009,07,28,10,59,19.60
2009,07,28,11,00,19.60
2009,07,28,11,01,19.60
2009,07,28,11,02,19.60
2009,07,28,11,03,19.60
2009,07,28,11,04,19.60
2009,07,28,11,05,19.60
2009,07,28,11,06,19.60
2009,07,28,11,07,19.60
2009,07,28,11,08,19.60
2009,07,28,11,09,19.60
2009,07,28,11,10,19.60
2009,07,28,11,11,19.60
2009,07,28,11,12,19.60
2009,07,28,11,13,19.60
2009,07,28,11,14,19.60
2009,07,28,11,15,19.60
2009,07,28,11,16,19.60
2009,07,28,11,17,19.60
2009,07,28,11,18,19.60
2009,07,28,11,19,19.60
2009,07,28,11,20,19.60
2009,07,28,11,21,19.60
2009,07,28,11,22,19.60
2009,07,28,11,23,19.60
2009,07,28,11,24,19.60
2009,07,28,11,25,19.60
2009,07,28,11,26,19.60
2009,07,28,11,27,19.60
2009,07,28,11,28,19.40
2009,07,28,11,29,19.40
2009,07,28,11,30,19.40
2009,07,28,11,31,19.40
2009,07,28,11,32,19.40
2009,07,28,11,33,19.40
2009,07,28,11,34,19.40
2009,07,28,11,35,19.40
2009,07,28,11,36,19.40
2009,07,28,11,37,19.40
2009,07,28,11,38,19.40
2009,07,28,11,39,19.40
2009,07,28,11,40,19.40
2009,07,28,11,41,19.40
2009,07,28,11,42,19.40
2009,07,28,11,43,19.30
2009,07,28,11,44,19.30
2009,07,28,11,45,19.30
2009,07,28,11,46,19.30
2009,07,28,11,47,19.30
2009,07,28,11,48,19.30
2009,07,28,11,49,19.30
2009,07,28,11,50,19.30
2009,07,28,11,51,19.30
2009,07,28,11,52,19.30
2009,07,28,11,53,19.30
2009,07,28,11,54,19.30
2009,07,28,11,55,19.30
2009,07,28,11,56,19.30
2009,07,28,11,57,19.30
2009,07,28,11,58,20.30
2009,07,28,11,59,20.30
2009,07,28,12,00,20.30
2009,07,28,12,01,20.30
2009,07,28,12,02,20.30
2009,07,28,12,03,20.30
2009,07,28,12,04,20.30
2009,07,28,12,05,20.30
2009,07,28,12,06,20.30
2009,07,28,12,07,20.30
2009,07,28,12,08,20.30
2009,07,28,12,09,20.30
2009,07,28,12,10,20.30
2009,07,28,12,11,20.30
2009,07,28,12,12,20.30
2009,07,28,12,13,19.80
2009,07,28,12,14,19.80
2009,07,28,12,15,19.80
2009,07,28,12,16,19.80
2009,07,28,12,17,19.80
2009,07,28,12,18,19.80
2009,07,28,12,19,19.80
2009,07,28,12,20,19.80
2009,07,28,12,21,19.80
2009,07,28,12,22,19.80
2009,07,28,12,23,19.80
2009,07,28,12,24,19.80
2009,07,28,12,25,19.80
2009,07,28,12,26,19.80
2009,07,28,12,27,19.80
2009,07,28,12,28,19.70
2009,07,28,12,29,19.70
2009,07,28,12,30,19.70
2009,07,28,12,31,19.70
2009,07,28,12,32,19.70
2009,07,28,12,33,19.70
2009,07,28,12,34,19.70
2009,07,28,12,35,19.70
2009,07,28,12,36,19.70
2009,07,28,12,37,19.70
2009,07,28,12,38,19.70
2009,07,28,12,39,19.70
2009,07,28,12,40,19.70
2009,07,28,12,41,19.70
2009,07,28,12,42,19.70
2009,07,28,12,43,19.90
2009,07,28,12,44,19.90
2009,07,28,12,45,19.90
2009,07,28,12,46,19.90
2009,07,28,12,47,19.90
2009,07,28,12,48,19.90
2009,07,28,12,49,19.90
2009,07,28,12,50,19.90
2009,07,28,12,51,19.90
2009,07,28,12,52,19.90
2009,07,28,12,53,19.90
2009,07,28,12,54,19.90
2009,07,28,12,55,19.90
2009,07,28,12,56,19.90
2009,07,28,12,57,19.90
2009,07,28,12,58,21.80
2009,07,28,12,59,21.80
2009,07,28,13,00,21.80
2009,07,28,13,01,21.80
2009,07,28,13,02,21.80
2009,07,28,13,03,21.80
2009,07,28,13,04,21.80
2009,07,28,13,05,21.80
2009,07,28,13,06,21.80
2009,07,28,13,07,21.80
2009,07,28,13,08,21.80
2009,07,28,13,09,21.80
2009,07,28,13,10,21.80
2009,07,28,13,11,21.80
2009,07,28,13,12,21.80
2009,07,28,13,13,22.80
2009,07,28,13,14,22.80
2009,07,28,13,15,22.80
2009,07,28,13,16,22.80
2009,07,28,13,17,22.80
2009,07,28,13,18,22.80
2009,07,28,13,19,22.80
2009,07,28,13,20,22.80
2009,07,28,13,21,22.80
2009,07,28,13,22,22.80
2009,07,28,13,23,22.80
2009,07,28,13,24,22.80
2009,07,28,13,25,22.80
2009,07,28,13,26,22.80
2009,07,28,13,27,22.80
2009,07,28,13,28,22.70
2009,07,28,13,29,22.70
2009,07,28,13,30,22.70
2009,07,28,13,31,22.70
2009,07,28,13,32,22.70
2009,07,28,13,33,22.70
2009,07,28,13,34,22.70
2009,07,28,13,35,22.70
2009,07,28,13,36,22.70
2009,07,28,13,37,22.70
2009,07,28,13,38,22.70
2009,07,28,13,39,22.70
2009,07,28,13,40,22.70
2009,07,28,13,41,22.70
2009,07,28,13,42,22.70
2009,07,28,13,43,22.60
2009,07,28,13,44,22.60
2009,07,28,13,45,22.60
2009,07,28,13,46,22.60
2009,07,28,13,47,22.60
2009,07,28,13,48,22.60
2009,07,28,13,49,22.60
2009,07,28,13,50,22.60
2009,07,28,13,51,22.60
2009,07,28,13,52,22.60
2009,07,28,13,53,22.60
2009,07,28,13,54,22.60
2009,07,28,13,55,22.60
2009,07,28,13,56,22.60
2009,07,28,13,57,22.60
2009,07,28,13,58,22.80
2009,07,28,13,59,22.80
2009,07,28,14,00,22.80
2009,07,28,14,01,22.80
2009,07,28,14,02,22.80
2009,07,28,14,03,22.80
2009,07,28,14,04,22.80
2009,07,28,14,05,22.80
2009,07,28,14,06,22.80
2009,07,28,14,07,22.80
2009,07,28,14,08,22.80
2009,07,28,14,09,22.80
2009,07,28,14,10,22.80
2009,07,28,14,11,22.80
2009,07,28,14,12,22.80
2009,07,28,14,13,22.70
2009,07,28,14,14,22.70
2009,07,28,14,15,22.70
2009,07,28,14,16,22.70
2009,07,28,14,17,22.70
2009,07,28,14,18,22.70
2009,07,28,14,19,22.70
2009,07,28,14,20,22.70
2009,07,28,14,21,22.70
2009,07,28,14,22,22.70
2009,07,28,14,23,22.70
2009,07,28,14,24,22.70
2009,07,28,14,25,22.70
2009,07,28,14,26,22.70
2009,07,28,14,27,22.70
2009,07,28,14,28,23.40
2009,07,28,14,29,23.40
2009,07,28,14,30,23.40
2009,07,28,14,31,23.40
2009,07,28,14,32,23.40
2009,07,28,14,33,23.40
2009,07,28,14,34,23.40
2009,07,28,14,35,23.40
2009,07,28,14,36,23.40
2009,07,28,14,37,23.40
2009,07,28,14,38,23.40
2009,07,28,14,39,23.40
2009,07,28,14,40,23.40
2009,07,28,14,41,23.40
2009,07,28,14,42,23.40
2009,07,28,14,43,23.70
2009,07,28,14,44,23.70
2009,07,28,14,45,23.70
2009,07,28,14,46,23.70
2009,07,28,14,47,23.70
2009,07,28,14,48,23.70
2009,07,28,14,49,23.70
2009,07,28,14,50,23.70
2009,07,28,14,51,23.70
2009,07,28,14,52,23.70
2009,07,28,14,53,23.70
2009,07,28,14,54,23.70
2009,07,28,14,55,23.70
2009,07,28,14,56,23.70
2009,07,28,14,57,23.70
2009,07,28,14,58,24.10
2009,07,28,14,59,24.10
2009,07,28,15,00,24.10
2009,07,28,15,01,24.10
2009,07,28,15,02,24.10
2009,07,28,15,03,24.10
2009,07,28,15,04,24.10
2009,07,28,15,05,24.10
2009,07,28,15,06,24.10
2009,07,28,15,07,24.10
2009,07,28,15,08,24.10
2009,07,28,15,09,24.10
2009,07,28,15,10,24.10
2009,07,28,15,11,24.10
2009,07,28,15,12,24.10
2009,07,28,15,13,24.10
2009,07,28,15,15,23.60
2009,07,28,15,16,23.60
2009,07,28,15,17,23.60
2009,07,28,15,18,23.60
2009,07,28,15,19,23.60
2009,07,28,15,20,23.60
2009,07,28,15,21,23.60
2009,07,28,15,22,23.60
2009,07,28,15,23,23.60
2009,07,28,15,24,23.60
2009,07,28,15,25,23.60
2009,07,28,15,26,23.60
2009,07,28,15,27,23.60
2009,07,28,15,28,23.90
2009,07,28,15,29,23.90
2009,07,28,15,30,23.90
2009,07,28,15,31,23.90
2009,07,28,15,32,23.90
2009,07,28,15,33,23.90
2009,07,28,15,34,23.90
2009,07,28,15,35,23.90
2009,07,28,15,36,23.90
2009,07,28,15,37,23.90
2009,07,28,15,38,23.90
2009,07,28,15,39,23.90
2009,07,28,15,40,23.90
2009,07,28,15,41,23.90
2009,07,28,15,42,23.90
2009,07,28,15,43,24.90
2009,07,28,15,44,24.90
2009,07,28,15,45,24.90
2009,07,28,15,46,24.90
2009,07,28,15,47,24.90
2009,07,28,15,48,24.90
2009,07,28,15,49,24.90
2009,07,28,15,50,24.90
2009,07,28,15,51,24.90
2009,07,28,15,52,24.90
2009,07,28,15,53,24.90
2009,07,28,15,54,24.90
2009,07,28,15,55,24.90
2009,07,28,15,56,24.90
2009,07,28,15,57,24.90
2009,07,28,15,58,25.10
2009,07,28,15,59,25.10
2009,07,28,16,00,25.10
2009,07,28,16,01,25.10
2009,07,28,16,02,25.10
2009,07,28,16,03,25.10
2009,07,28,16,04,25.10
2009,07,28,16,05,25.10
2009,07,28,16,06,25.10
2009,07,28,16,07,25.10
2009,07,28,16,08,25.10
2009,07,28,16,09,25.10
2009,07,28,16,10,25.10
2009,07,28,16,11,25.10
2009,07,28,16,12,25.10
2009,07,28,16,13,25.50
2009,07,28,16,14,25.50
2009,07,28,16,15,25.50
2009,07,28,16,16,25.50
2009,07,28,16,17,25.50
2009,07,28,16,18,25.50
2009,07,28,16,19,25.50
2009,07,28,16,20,25.50
2009,07,28,16,21,25.50
2009,07,28,16,22,25.50
2009,07,28,16,23,25.50
2009,07,28,16,24,25.50
2009,07,28,16,25,25.50
2009,07,28,16,26,25.50
2009,07,28,16,27,25.50
2009,07,28,16,28,25.60
2009,07,28,16,29,25.60
2009,07,28,16,30,25.60
2009,07,28,16,31,25.60
2009,07,28,16,32,25.60
2009,07,28,16,33,25.60
2009,07,28,16,34,25.60
2009,07,28,16,35,25.60
2009,07,28,16,36,25.60
2009,07,28,16,37,25.60
2009,07,28,16,38,25.60
2009,07,28,16,39,25.60
2009,07,28,16,40,25.60
2009,07,28,16,41,25.60
2009,07,28,16,42,25.60
2009,07,28,16,43,25.60
2009,07,28,16,44,25.60
2009,07,28,16,45,25.60
2009,07,28,16,46,25.60
2009,07,28,16,47,25.60
2009,07,28,16,48,25.60
2009,07,28,16,49,25.60
2009,07,28,16,50,25.60
2009,07,28,16,51,25.60
2009,07,28,16,52,25.60
2009,07,28,16,53,25.60
2009,07,28,16,54,25.60
2009,07,28,16,55,25.60
2009,07,28,16,56,25.60
2009,07,28,16,57,25.60
2009,07,28,16,58,26.10
2009,07,28,16,59,26.10
2009,07,28,17,00,26.10
2009,07,28,17,01,26.10
2009,07,28,17,02,26.10
2009,07,28,17,03,26.10
2009,07,28,17,04,26.10
2009,07,28,17,05,26.10
2009,07,28,17,06,26.10
2009,07,28,17,07,26.10
2009,07,28,17,08,26.10
2009,07,28,17,09,26.10
2009,07,28,17,10,26.10
2009,07,28,17,11,26.10
2009,07,28,17,12,26.10
2009,07,28,17,13,26.80
2009,07,28,17,14,26.80
2009,07,28,17,15,26.80
2009,07,28,17,16,26.80
2009,07,28,17,17,26.80
2009,07,28,17,18,26.80
2009,07,28,17,19,26.80
2009,07,28,17,20,26.80
2009,07,28,17,21,26.80
2009,07,28,17,22,26.80
2009,07,28,17,23,26.80
2009,07,28,17,24,26.80
2009,07,28,17,25,26.80
2009,07,28,17,26,26.80
2009,07,28,17,27,26.80
2009,07,28,17,28,27.50
2009,07,28,17,29,27.50
2009,07,28,17,30,27.50
2009,07,28,17,31,27.50
2009,07,28,17,32,27.50
2009,07,28,17,33,27.50